Theta_e
315 314 315 316 317 319 320 320 320 321 322 322 322 321 325 328 319 314 325 335 328 325 326 328 338 347 345 344 345 340 338 339 338 338 341 339 336 339 344 348 350 352 354 355 356 354 351 351 351 350 350 351 351 351 351 351 350 350 352 354 355 356 356 356 357 357 357 357 357 357 357 357 358 357 357 357 357 357 357 356 356 356 356 355 355 355 355
315 314 314 316 317 318 318 318 319 319 319 320 321 322 324 325 323 322 326 332 331 329 327 325 328 338 341 339 338 334 334 340 346 344 341 339 336 336 340 347 350 351 352 353 355 355 353 352 352 351 350 351 351 350 351 351 351 351 353 354 354 354 355 357 358 357 356 357 358 357 356 357 357 357 358 358 358 357 357 356 356 356 356 356 356 356 356
315 314 314 316 316 316 317 317 318 318 319 320 320 322 323 324 325 326 325 325 327 329 330 329 331 338 340 337 336 339 340 343 346 346 343 343 344 341 340 343 345 346 350 351 352 354 354 353 352 351 351 351 350 350 350 351 351 351 352 353 353 353 356 356 357 356 355 356 357 357 357 357 357 357 358 358 358 358 357 357 357 356 356 356 356 356 356
315 314 314 314 314 315 316 317 319 319 319 320 321 323 325 325 325 326 324 322 324 328 330 330 332 335 335 334 336 341 345 341 340 344 348 353 358 356 350 345 342 342 344 347 350 350 348 350 351 350 351 351 350 350 350 350 351 351 352 352 352 353 356 356 355 355 355 356 357 357 358 358 357 357 358 358 358 358 358 358 357 357 357 357 357 356 356
314 313 313 313 314 316 317 317 320 322 323 324 325 324 325 326 325 324 323 322 325 331 332 329 330 331 331 334 336 340 345 345 342 342 345 348 351 351 349 346 343 342 340 341 345 347 346 347 349 348 349 350 350 350 350 351 351 351 352 353 353 354 356 355 354 354 356 357 358 358 358 358 358 358 358 358 359 358 359 358 358 357 357 357 357 356 356
314 313 313 314 316 318 319 318 321 326 329 331 333 332 331 330 327 324 325 326 329 332 332 330 332 331 332 338 341 341 344 348 348 346 347 348 347 345 345 345 343 344 344 342 342 345 346 346 346 346 347 349 351 351 351 352 351 351 353 352 353 355 355 355 354 355 356 357 358 359 359 359 359 359 359 359 359 359 359 359 358 358 358 357 357 357 356
312 313 315 316 319 320 319 320 325 330 333 336 338 339 339 336 333 331 329 326 327 330 332 334 334 332 336 347 351 348 346 348 352 352 353 355 351 348 350 351 349 349 349 346 343 344 344 343 344 346 347 348 349 350 351 352 351 351 352 352 353 355 355 355 355 356 357 358 358 359 359 359 359 359 359 359 359 359 359 359 358 358 357 358 357 357 357
312 313 314 317 320 318 315 321 331 335 335 337 338 338 338 338 339 340 339 335 333 332 330 329 332 336 340 348 352 351 350 351 352 351 352 353 351 351 353 353 353 354 353 350 347 345 343 343 344 345 346 346 348 349 349 351 353 353 353 354 355 355 356 356 356 357 357 359 359 359 359 359 360 359 360 360 360 360 359 359 358 358 358 358 357 357 357
312 312 312 315 317 315 314 323 334 334 335 338 339 337 338 341 342 343 345 346 346 345 340 332 330 335 338 340 346 350 350 351 350 351 351 351 350 351 351 351 353 355 355 355 353 347 344 342 343 344 345 346 347 349 349 351 353 354 355 357 356 356 356 357 357 358 358 359 360 359 359 360 360 360 360 360 360 360 360 359 359 358 358 357 358 357 357
312 312 311 314 315 314 319 329 333 332 333 337 338 338 339 341 340 340 343 346 347 349 350 343 335 335 336 334 337 347 349 349 349 349 348 348 348 349 349 350 353 355 355 356 353 348 344 343 344 345 346 346 348 351 352 352 354 356 357 357 357 357 357 358 358 358 359 359 360 360 360 360 360 360 360 360 360 360 359 360 359 358 358 358 357 357 357
313 312 311 312 312 316 327 335 333 331 333 336 337 336 336 339 339 338 341 344 345 346 349 347 341 335 331 329 333 345 350 349 348 347 348 348 347 349 351 351 353 355 355 355 352 347 345 346 347 347 348 349 351 353 354 354 356 357 357 356 357 357 358 358 359 358 358 359 360 360 360 360 360 360 360 360 360 360 360 360 359 359 358 358 358 358 357
314 315 313 312 312 317 327 333 332 332 336 338 336 333 334 338 337 337 339 342 343 344 346 346 344 339 334 337 345 350 348 347 346 346 347 347 347 349 352 352 353 355 356 356 353 350 351 352 350 349 350 351 352 355 355 355 355 355 356 357 358 358 358 359 359 358 358 359 360 360 360 360 360 360 361 360 360 360 360 360 359 359 359 358 358 358 358
313 314 314 314 315 317 322 327 332 336 337 335 333 332 336 338 337 336 338 340 341 342 343 345 346 344 345 346 347 347 345 345 345 344 344 345 346 347 349 352 354 355 356 356 356 354 355 354 351 351 352 353 355 356 356 356 355 355 356 356 356 357 358 358 359 359 360 360 360 360 361 360 361 360 361 360 360 360 360 359 359 359 359 359 358 358 358
313 314 315 315 316 320 326 329 332 333 330 328 331 335 337 336 336 337 337 338 339 339 339 344 346 345 343 343 344 345 344 343 344 343 342 343 345 346 348 350 353 355 354 353 353 353 353 353 352 351 353 355 357 357 357 358 357 356 356 355 354 355 357 357 359 360 360 360 361 361 361 361 362 361 361 361 360 361 361 360 360 359 360 359 359 359 359
314 314 315 316 318 324 331 333 333 331 329 331 336 338 337 335 336 336 336 337 338 336 337 342 344 343 342 342 342 342 342 342 343 342 343 343 344 345 347 349 352 353 352 351 351 351 350 351 352 353 354 356 358 358 359 358 355 354 356 355 354 355 356 358 359 360 360 360 360 361 362 362 362 362 362 362 362 362 361 361 361 360 360 360 360 359 359
316 315 315 318 323 326 327 330 335 336 334 335 336 336 336 336 335 334 334 335 335 334 336 339 341 341 341 341 341 342 342 342 342 342 343 344 344 344 346 348 350 351 350 349 349 349 349 350 351 353 356 358 358 357 357 354 351 352 355 355 355 356 355 356 358 359 360 360 360 361 362 362 362 363 363 362 362 362 362 361 361 361 361 361 360 360 360
317 317 317 318 321 322 321 325 332 335 334 334 334 334 335 335 333 333 333 333 333 334 336 338 339 340 341 340 341 343 343 343 343 344 344 344 345 345 346 347 347 348 348 349 348 348 349 349 349 351 353 354 354 353 353 354 353 353 353 354 356 357 357 357 358 358 359 360 360 361 362 362 363 363 363 363 363 363 363 362 361 361 361 361 361 360 360
315 316 317 317 318 319 320 324 330 333 333 333 333 333 333 333 331 331 332 333 332 333 335 338 339 339 340 341 341 341 342 343 343 344 345 345 346 346 346 346 347 347 347 348 348 348 348 348 348 349 349 350 351 351 352 354 355 355 354 354 356 357 358 358 358 358 359 361 361 362 362 362 363 363 363 364 364 363 362 362 361 361 361 361 361 360 360
314 315 317 318 320 321 322 324 327 331 332 332 332 333 333 332 331 331 331 332 333 333 335 337 339 339 339 340 341 341 342 343 343 343 344 345 346 347 347 347 347 348 348 348 348 348 347 347 347 347 348 348 349 350 351 353 355 356 356 356 357 357 357 356 356 356 358 359 359 361 362 362 362 363 363 363 363 363 363 362 361 361 361 360 361 360 360
313 314 315 316 318 317 317 318 323 328 331 332 332 333 332 331 331 331 331 332 333 333 333 335 338 339 339 338 339 340 341 342 342 343 343 344 345 347 347 347 348 348 348 348 347 347 347 347 347 347 347 348 348 349 351 352 354 354 355 356 357 357 357 356 356 355 356 356 355 357 359 361 361 362 362 363 363 363 362 362 362 361 361 361 360 360 360
313 313 314 315 316 316 316 318 321 326 331 333 332 332 332 331 331 331 331 331 332 332 333 333 335 337 337 336 337 338 339 339 341 341 342 343 345 346 347 348 348 348 347 347 346 346 345 345 346 346 346 347 348 349 350 351 353 354 354 354 356 356 356 357 356 355 356 356 355 356 357 358 359 360 361 362 362 363 362 361 362 362 361 362 361 361 361
313 313 314 316 319 321 324 324 323 325 330 332 332 332 333 332 331 332 332 332 331 332 332 332 333 334 335 334 335 337 338 338 339 340 341 342 344 345 346 347 347 347 346 345 345 344 344 344 344 345 346 346 346 347 348 350 352 354 354 354 355 354 355 355 354 355 356 356 357 357 357 357 358 358 358 358 360 361 361 361 360 360 361 361 361 361 361
313 313 314 315 317 319 320 320 320 322 327 331 333 333 333 332 331 332 332 332 332 333 332 331 332 332 333 333 333 335 336 336 337 339 340 341 343 344 345 346 347 347 345 345 345 345 345 344 344 344 344 345 345 346 347 348 349 351 352 352 352 351 351 349 348 350 352 352 353 353 354 355 356 357 357 357 357 357 357 358 358 357 357 357 358 359 359
312 311 312 313 314 315 316 317 319 321 324 329 332 332 331 331 331 332 332 332 332 332 332 332 331 331 332 331 332 334 335 335 336 338 340 341 342 343 344 344 345 345 345 346 346 347 347 346 346 345 344 344 345 346 346 347 348 348 349 350 349 349 348 346 344 345 347 347 347 349 350 351 352 353 354 356 356 355 355 355 355 355 354 354 354 355 356
312 312 312 312 314 315 315 316 318 319 321 326 331 332 331 332 332 332 332 332 331 331 332 332 331 331 330 330 331 334 336 336 336 337 339 340 340 341 342 342 343 344 345 345 346 347 347 347 346 345 345 345 346 347 347 348 348 348 348 349 349 348 347 346 344 344 344 344 344 345 346 346 347 348 350 351 353 354 353 352 352 352 352 352 353 354 354
312 312 312 312 313 314 315 317 318 319 321 325 330 332 331 331 331 331 331 331 331 331 331 330 330 331 331 330 332 334 336 336 337 338 338 339 339 339 340 340 340 341 342 343 343 344 344 345 345 345 345 345 345 346 347 348 348 348 348 348 348 346 345 344 344 342 342 342 342 342 343 343 343 344 345 346 347 348 349 349 349 348 348 349 350 351 352
312 311 312 314 315 315 317 319 320 321 323 326 330 332 331 330 331 332 331 331 331 332 332 331 331 332 332 332 333 335 336 336 337 337 338 338 338 338 338 338 338 338 339 339 340 341 342 342 343 343 343 343 344 345 346 347 347 347 347 347 346 344 342 342 341 341 340 340 340 340 340 340 340 340 341 341 342 342 343 344 345 346 347 347 346 346 349
311 311 313 316 317 318 320 323 323 323 326 328 329 330 330 329 330 330 330 329 330 332 333 333 332 331 332 332 333 334 335 335 335 336 336 337 337 337 337 337 337 337 337 337 338 339 340 340 341 341 341 341 342 343 344 345 345 345 345 345 345 344 342 341 340 339 338 338 338 337 337 338 338 338 338 338 339 339 340 340 341 341 342 341 339 340 342
313 313 315 317 318 319 322 325 325 326 327 328 329 329 329 328 329 329 330 330 332 333 334 333 332 331 332 333 334 333 333 334 335 335 335 335 336 336 336 336 337 337 337 337 337 337 338 338 339 339 339 340 341 341 342 343 343 343 343 343 343 342 341 340 339 338 337 337 336 336 336 336 337 337 337 337 337 337 337 336 335 333 332 331 330 330 330
316 316 317 319 320 321 323 324 325 326 327 327 328 329 329 328 329 330 331 332 333 334 333 332 331 332 332 333 333 333 333 333 333 334 334 334 334 334 335 336 336 336 336 336 336 336 337 337 337 338 338 339 339 340 341 342 342 342 342 341 340 339 338 337 338 338 337 337 336 335 336 336 336 336 336 335 335 335 334 334 333 331 328 326 325 323 320
316 317 318 320 322 323 324 325 326 326 327 328 328 329 329 329 330 331 331 332 332 333 332 332 331 332 332 332 331 332 332 332 332 332 333 333 333 333 333 334 334 334 334 335 335 335 335 336 337 337 337 338 338 338 339 340 340 341 341 340 339 336 335 335 336 337 337 336 336 336 336 336 335 335 334 334 334 334 334 334 333 330 326 324 322 320 318
318 320 321 322 324 324 325 325 326 326 327 327 328 329 329 329 330 331 331 332 332 333 333 332 332 331 331 331 331 331 331 331 331 331 331 331 331 331 331 332 332 332 333 333 334 334 334 335 335 335 336 336 336 336 337 337 338 339 339 339 339 338 335 335 336 337 336 336 336 336 335 335 335 334 334 334 335 335 335 334 331 326 323 321 321 323 322
322 324 324 324 325 326 326 325 326 326 327 328 329 330 330 330 330 331 332 332 332 333 332 331 331 331 331 331 332 332 331 331 331 330 331 331 330 330 331 331 331 331 332 332 332 333 333 333 333 334 334 335 335 335 336 336 337 337 337 338 338 338 336 335 336 337 337 337 336 336 335 335 334 334 334 334 334 334 335 334 329 324 321 320 320 322 325
323 325 325 325 326 326 326 326 327 327 327 328 328 329 330 331 331 332 331 331 331 331 331 331 331 331 331 331 331 331 330 329 328 328 328 329 329 329 330 330 331 331 331 331 331 332 332 333 333 332 333 334 334 334 334 335 336 336 337 337 337 337 337 336 336 337 338 337 337 336 336 335 335 334 334 334 335 335 334 333 330 325 323 321 321 323 326
323 323 324 325 325 325 325 326 327 327 327 328 328 328 329 330 332 331 331 331 330 330 330 330 330 330 329 329 329 328 327 326 325 325 326 326 327 328 329 329 330 330 330 330 331 331 331 332 332 332 332 333 333 333 333 334 335 335 335 336 336 336 336 336 336 337 337 337 336 336 336 335 334 334 333 334 334 335 334 332 330 328 325 323 323 324 326
323 323 324 325 325 325 325 326 327 327 328 327 327 327 327 330 331 330 330 329 330 329 329 328 328 327 326 325 325 324 324 324 324 324 325 325 326 327 328 328 328 329 330 330 330 330 331 331 331 331 331 331 332 332 331 332 333 334 334 334 335 335 335 336 336 336 336 336 336 336 335 334 333 333 333 333 333 334 333 331 330 329 327 325 325 325 326
324 324 324 324 324 324 324 324 326 328 328 328 327 327 327 328 329 329 328 328 328 327 326 325 325 324 323 322 322 323 323 323 324 324 325 325 326 326 326 327 327 327 328 328 328 328 328 328 329 330 330 330 331 330 329 329 331 332 332 332 333 334 333 334 334 334 335 335 336 335 335 335 334 333 332 332 332 332 331 330 329 328 327 326 326 326 327
324 324 324 324 323 324 324 325 326 327 327 327 327 327 327 327 327 327 327 326 325 324 323 323 323 323 323 322 322 323 323 323 324 324 325 325 325 325 325 325 325 325 326 326 327 327 326 325 326 327 328 328 329 329 328 327 329 331 331 331 331 331 331 332 332 332 333 333 334 334 335 335 335 334 333 333 332 331 330 329 329 327 326 326 325 326 327
323 324 324 324 324 324 324 325 325 326 325 325 326 326 327 326 325 325 324 323 322 322 322 323 324 324 324 324 324 324 324 324 324 324 324 325 324 324 324 324 324 325 325 325 325 326 325 324 323 324 325 324 324 325 326 327 328 330 330 329 329 329 330 330 330 330 330 331 331 332 333 332 333 333 333 332 331 331 330 329 327 326 325 324 324 325 326
320 321 322 323 323 322 322 322 323 324 324 324 325 325 325 323 322 322 322 321 322 322 323 324 324 324 324 324 324 323 323 323 323 323 323 323 323 323 323 323 323 323 324 325 325 325 325 324 323 323 323 322 321 321 323 325 326 327 328 329 329 329 329 329 329 329 329 329 329 330 330 331 331 331 331 330 330 330 329 328 326 325 325 324 323 324 325
317 318 318 319 319 319 319 319 319 320 320 320 320 320 320 320 320 320 321 321 322 322 323 323 323 323 323 322 321 321 320 320 320 321 321 321 322 321 321 321 321 322 322 323 323 323 323 323 323 322 322 322 321 319 319 320 322 323 324 326 326 327 328 328 329 329 329 329 328 329 329 329 329 329 329 329 329 328 327 326 324 323 323 322 322 323 323
316 316 316 316 317 317 317 317 317 317 317 317 317 317 317 317 317 317 318 318 319 320 320 321 321 321 320 320 319 319 319 318 318 318 318 319 320 320 319 319 320 320 320 321 322 322 322 322 322 321 321 320 319 318 317 318 319 320 321 321 322 323 324 325 326 327 327 328 328 328 328 328 328 327 327 327 326 325 324 323 322 322 321 321 321 322 323
315 315 315 315 315 315 315 315 315 314 314 314 314 314 314 315 315 315 315 315 315 316 316 316 317 317 317 317 317 317 317 317 318 318 317 317 317 318 318 318 318 318 318 319 320 320 320 320 320 319 318 318 317 316 316 317 318 318 318 319 319 319 320 321 321 322 323 323 324 324 324 325 326 326 326 325 324 323 322 321 320 319 319 319 319 320 322
314 314 315 315 314 314 313 313 313 313 312 312 311 311 311 311 312 312 312 312 313 313 313 313 313 313 314 314 314 315 315 316 317 317 317 316 315 315 316 316 316 316 317 317 318 318 318 318 317 315 314 314 315 315 316 317 317 317 317 317 317 317 317 317 318 318 318 318 318 318 318 318 320 321 321 322 322 322 322 322 321 320 319 319 318 319 320
313 314 314 314 314 313 313 312 312 311 311 310 310 309 309 309 309 309 310 310 310 310 310 311 311 311 311 311 312 312 312 313 314 315 315 314 314 313 314 314 315 315 315 315 316 316 315 314 313 311 312 312 313 314 314 315 315 315 315 315 315 315 315 315 314 314 314 314 314 314 314 313 313 313 313 314 315 317 317 319 320 321 321 320 319 318 319
311 312 313 314 314 313 312 311 311 310 309 309 309 309 308 308 308 308 308 309 309 309 309 309 309 309 309 310 310 310 309 309 310 311 312 312 311 311 311 312 312 313 313 314 314 314 314 312 309 308 309 311 312 312 313 313 314 313 313 313 313 313 313 313 313 312 312 311 310 310 310 309 309 308 308 309 310 310 312 314 316 317 319 319 318 318 319
310 310 311 312 313 313 312 311 311 310 310 309 309 308 308 307 307 306 307 307 307 307 308 308 308 308 308 308 309 309 309 308 308 308 309 309 309 309 309 309 309 310 311 312 312 312 311 309 308 307 308 309 311 312 311 311 312 312 311 312 312 312 312 312 311 311 311 310 309 308 308 307 307 306 306 307 306 307 308 310 311 312 314 315 316 318 319
308 309 309 310 310 311 311 311 311 311 310 309 309 308 308 307 307 306 305 305 305 305 306 307 307 307 307 307 307 308 308 308 307 307 307 307 307 308 307 307 307 307 308 309 310 309 308 307 306 306 307 308 310 310 310 310 310 310 310 310 310 310 310 310 310 310 310 309 309 308 308 307 307 306 306 306 305 305 306 307 308 309 310 310 311 313 314
307 307 308 308 309 309 309 310 310 310 309 309 308 308 307 307 307 306 305 305 305 305 305 305 305 306 306 306 306 306 306 307 307 306 306 305 305 306 306 306 305 304 306 307 308 308 307 306 305 306 307 308 309 309 309 309 309 309 309 309 309 308 308 308 308 308 308 308 308 308 307 307 306 306 305 305 305 305 305 305 306 306 307 307 308 308 309
306 307 307 307 307 308 308 308 308 308 308 307 307 307 307 306 306 306 306 305 305 305 304 304 304 304 304 304 305 305 305 305 305 305 305 304 304 304 304 304 303 303 304 304 305 305 306 306 306 305 306 307 307 308 308 308 308 308 308 308 308 307 307 307 306 306 307 307 306 306 306 306 306 305 305 305 304 304 304 304 304 304 305 305 306 306 306
306 306 306 307 306 306 306 307 307 307 306 306 306 306 306 305 305 305 304 305 305 305 304 304 303 303 303 303 303 304 304 304 303 303 303 303 303 302 302 301 301 301 301 302 302 303 303 305 305 305 305 306 306 306 306 306 306 306 306 306 306 306 306 306 305 305 305 305 304 304 304 304 304 304 304 304 304 304 303 303 303 302 303 303 303 303 304
305 305 306 306 306 306 305 305 305 305 305 305 305 305 304 304 304 303 303 303 303 303 304 304 304 303 303 303 303 302 303 303 302 302 302 302 301 301 301 300 300 299 300 300 300 300 301 302 303 303 303 304 304 305 305 305 304 304 304 304 304 304 303 304 304 304 303 303 303 303 303 302 303 303 303 303 303 303 302 302 302 302 301 301 301 301 301
Wind_Speed
4 5 6 3 2 3 4 6 9 9 8 7 8 9 8 6 8 10 6 8 12 10 8 10 8 5 6 8 7 5 4 4 4 3 5 7 8 8 7 8 9 10 10 11 11 12 13 17 21 23 26 28 28 28 29 30 32 33 31 32 34 32 33 36 36 36 36 34 35 38 37 36 37 37 35 34 34 33 35 37 37 36 37 38 39 39 38
5 5 6 3 1 3 6 8 10 11 12 11 11 11 11 11 11 12 10 10 11 8 8 13 13 8 6 6 5 5 6 6 4 4 6 8 8 7 8 8 9 10 11 11 11 11 11 14 18 22 24 26 28 30 31 31 33 34 31 34 37 34 33 35 34 34 37 36 35 39 39 38 40 40 37 35 36 37 38 38 37 38 38 36 35 36 35
5 4 5 4 3 6 9 10 11 11 12 12 12 11 11 11 10 11 14 14 10 5 4 9 11 6 3 5 7 7 8 6 5 6 7 6 6 7 7 7 7 8 9 10 10 11 13 15 18 22 23 25 28 30 31 31 33 33 32 34 37 37 34 33 32 36 41 39 36 38 40 39 40 41 38 36 37 39 40 38 36 38 41 38 34 32 33
5 3 4 7 9 10 12 12 12 13 12 11 9 9 9 10 8 10 12 12 8 4 4 8 10 7 5 8 10 8 7 6 6 7 7 6 6 6 5 4 5 7 9 10 12 14 15 16 19 23 24 25 26 28 31 33 34 33 32 33 37 37 33 32 36 40 40 38 37 37 39 38 38 39 38 36 36 37 37 36 36 38 39 38 35 33 32
4 4 5 9 10 10 9 8 6 8 9 8 9 9 9 10 9 9 9 7 6 5 7 10 10 10 11 10 9 9 7 6 7 8 8 8 7 6 5 5 6 8 9 9 12 14 15 18 23 27 27 26 26 30 31 29 29 30 31 33 36 36 31 33 39 41 38 37 37 36 37 37 36 37 36 36 36 36 35 36 36 37 37 36 36 35 34
3 5 6 8 8 7 4 1 1 3 6 6 6 8 9 9 9 9 10 9 8 7 8 9 10 13 14 10 7 6 5 5 6 8 8 7 7 7 7 7 7 7 7 8 10 13 16 20 23 25 26 27 28 28 26 23 25 27 28 30 32 31 30 34 38 39 38 38 37 36 37 36 35 36 37 37 37 35 34 35 36 37 37 37 36 36 36
4 4 4 6 8 5 1 3 1 4 5 4 6 9 9 6 6 8 11 12 12 10 8 9 10 13 13 6 1 3 4 4 5 7 7 6 6 6 6 7 7 6 6 8 9 11 15 19 20 21 25 28 27 25 23 24 28 31 31 31 30 27 28 32 35 36 38 37 35 34 35 34 34 36 37 37 36 34 33 35 36 36 37 37 37 37 37
3 2 4 7 3 7 10 3 3 1 1 1 5 7 3 3 7 6 7 9 11 11 10 8 8 9 8 3 1 4 5 5 5 7 6 5 5 6 5 6 6 6 6 8 9 11 12 15 18 21 24 25 24 24 24 25 27 30 30 29 27 27 28 30 33 35 36 34 33 32 32 32 32 34 35 35 34 33 33 33 33 34 36 37 37 37 37
5 4 7 8 5 11 15 5 4 3 1 1 2 3 1 3 6 6 7 9 11 12 11 9 7 5 5 6 5 6 6 6 6 6 5 4 4 5 6 6 7 8 8 10 11 11 11 13 17 19 20 22 23 23 23 24 26 27 26 26 27 30 31 32 33 34 33 32 31 30 30 31 32 33 34 33 33 33 33 32 32 34 36 36 36 35 36
5 5 7 8 8 9 7 3 5 2 2 2 2 2 3 1 6 8 8 9 11 11 11 10 6 3 5 8 7 7 8 7 5 4 5 5 4 5 6 7 7 8 9 10 10 10 11 13 15 16 18 20 21 20 20 23 23 22 23 25 27 30 32 32 32 33 33 32 31 30 31 33 33 33 34 33 33 34 34 32 32 33 33 34 36 37 36
6 7 8 8 8 5 3 7 5 2 2 5 5 4 2 2 8 10 9 10 11 11 11 11 6 4 8 8 5 4 7 6 2 2 3 4 4 4 5 5 7 7 7 6 5 5 8 9 11 14 17 19 19 18 18 20 20 21 24 27 28 30 31 29 30 33 35 34 32 31 33 34 33 32 32 31 30 31 32 31 31 31 31 32 36 36 35
7 7 7 7 6 3 2 5 3 1 2 6 5 5 2 3 7 9 8 10 11 9 11 11 7 7 7 5 3 4 4 3 1 1 3 5 5 5 5 5 5 5 3 3 4 2 2 3 5 11 16 17 17 16 15 17 20 22 24 24 25 26 24 23 27 32 32 32 33 34 34 34 32 30 29 28 27 28 30 30 30 31 32 33 35 35 35
9 9 8 7 5 4 2 2 1 1 4 5 5 5 1 2 6 7 8 10 9 8 9 9 7 5 3 3 4 5 5 3 4 4 4 5 5 5 5 5 4 4 7 9 9 7 6 4 0 7 12 14 13 13 13 15 18 19 19 20 22 22 21 21 24 26 28 30 33 34 32 31 29 27 27 27 27 28 29 29 30 32 33 34 34 34 35
7 7 7 7 5 2 1 3 2 2 4 5 4 1 0 3 6 7 8 10 9 7 8 9 9 6 3 3 3 3 4 4 4 5 6 6 5 5 4 4 3 6 9 11 11 10 9 8 5 4 8 9 8 10 10 9 10 11 13 19 24 23 23 22 22 23 26 28 29 28 27 26 26 25 25 26 27 28 28 29 31 32 32 32 33 34 34
7 7 8 7 4 1 2 1 3 5 5 3 2 2 1 3 5 7 7 8 7 7 7 9 9 6 3 2 1 3 4 4 4 5 6 6 6 6 4 4 6 8 10 12 13 12 11 11 10 7 7 7 6 6 5 2 0 4 9 15 20 22 23 24 23 24 27 29 30 28 25 26 26 25 24 25 26 26 27 28 29 30 31 31 32 33 31
6 8 7 4 3 4 8 8 5 3 1 1 1 2 2 2 4 5 6 6 7 6 6 7 7 5 2 1 2 3 4 4 4 4 4 5 5 6 5 5 7 9 10 12 14 14 14 14 14 12 10 10 10 8 6 5 3 2 5 10 15 18 21 23 23 23 24 28 31 29 26 26 26 25 25 26 25 26 27 29 29 28 29 30 30 30 29
4 6 6 8 10 9 8 9 9 6 3 1 2 2 1 1 3 4 5 7 8 7 5 5 5 4 2 2 4 4 4 5 5 4 4 5 5 5 6 7 9 10 11 13 14 15 16 15 15 15 14 13 13 11 6 4 3 2 4 8 10 13 16 19 21 22 22 24 27 27 26 26 26 26 26 25 25 27 28 29 29 29 30 30 29 29 29
7 7 8 11 15 14 10 10 10 8 4 3 3 3 1 2 3 4 5 7 8 8 6 3 2 3 2 3 5 5 5 5 6 6 6 6 6 6 7 8 8 10 12 13 15 16 16 15 15 15 14 14 13 10 7 6 6 5 5 6 7 7 8 9 13 15 17 18 21 23 24 25 26 27 27 25 26 28 28 29 31 31 30 31 29 28 29
7 6 6 10 13 12 11 10 12 11 8 5 4 3 1 3 4 5 6 7 7 6 6 4 2 2 2 3 4 5 5 6 6 6 6 7 8 8 9 9 8 9 10 11 13 14 14 15 15 15 15 15 14 11 10 9 8 8 8 7 7 5 4 3 4 6 9 11 13 15 18 21 23 24 25 25 25 25 27 29 31 31 30 30 29 29 30
6 7 11 13 15 15 12 10 11 11 9 6 4 4 2 6 7 6 6 6 6 6 6 6 5 4 4 5 5 5 6 6 6 6 6 6 7 9 10 10 9 10 11 11 12 13 14 14 15 15 15 15 14 13 13 11 9 10 10 9 8 7 6 5 3 2 4 7 9 10 12 16 19 20 22 25 26 27 30 32 32 32 32 32 32 33 32
8 11 13 13 14 15 14 12 12 12 9 6 4 5 2 8 10 7 6 5 6 7 7 8 8 7 7 8 8 7 6 7 7 6 6 6 7 8 9 10 11 12 11 12 13 14 14 14 15 15 15 15 14 13 12 11 10 11 11 10 9 8 6 5 4 3 2 3 6 8 9 13 16 19 22 24 25 27 30 33 34 33 32 32 33 33 31
8 9 8 7 8 9 8 9 12 13 11 7 3 3 2 7 11 6 5 5 6 7 8 9 9 9 9 10 9 7 7 8 7 7 6 6 6 8 9 10 13 13 12 12 14 14 14 15 15 15 14 14 13 12 11 10 10 10 9 9 9 8 7 6 5 3 2 1 3 5 7 10 13 17 22 26 28 28 28 30 33 33 32 31 30 28 27
12 11 9 8 9 10 10 12 15 15 13 8 1 2 4 3 10 7 2 4 6 7 8 8 9 9 9 10 10 8 8 8 8 8 8 6 6 8 10 11 13 13 12 13 14 15 14 15 14 14 13 13 13 12 11 10 10 10 9 9 8 7 6 6 5 4 2 1 1 2 5 7 9 12 17 22 27 30 31 31 32 34 34 34 33 30 29
15 15 13 11 11 13 14 16 17 15 14 10 3 3 4 2 7 8 3 4 6 6 7 7 8 9 8 9 9 9 8 8 9 9 9 9 9 9 10 11 11 12 12 13 13 14 14 15 14 13 13 13 13 12 12 11 11 10 9 8 8 7 6 5 5 4 2 1 1 2 4 5 7 9 11 14 18 23 28 32 34 35 35 35 34 35 35
14 14 13 12 14 17 16 16 17 16 17 14 6 6 5 4 5 8 4 4 6 6 6 7 8 9 9 9 9 9 8 9 10 10 10 10 11 10 11 12 11 11 12 12 13 13 14 15 14 14 14 14 13 12 12 11 10 10 9 8 8 7 5 5 4 3 2 2 2 3 4 4 6 8 10 12 14 16 19 24 29 33 35 37 38 39 39
14 14 14 14 17 18 15 13 15 16 17 16 9 8 6 3 6 9 5 4 5 6 6 6 7 9 10 9 9 9 9 9 11 11 10 10 11 12 12 13 13 12 12 13 13 14 14 15 15 15 16 15 13 12 11 10 9 9 9 8 8 7 6 5 4 4 4 4 4 4 5 6 7 8 9 11 13 15 15 16 19 25 30 34 38 40 40
13 14 13 15 17 17 14 14 16 15 13 14 12 10 9 5 5 7 6 4 5 5 6 8 9 8 10 11 10 10 10 10 11 11 11 11 12 13 14 15 15 15 15 15 14 14 14 14 15 16 16 14 12 11 11 11 10 10 10 9 7 7 7 6 5 5 5 5 5 5 6 6 6 7 9 10 12 14 15 16 17 21 25 28 31 34 37
14 14 13 14 16 16 12 12 14 13 12 14 11 9 10 7 5 6 7 6 5 4 5 8 9 8 9 11 10 9 9 11 11 11 11 11 12 13 14 15 16 16 16 16 15 15 14 14 15 15 14 13 12 11 11 11 10 10 9 9 8 7 7 7 6 5 5 5 5 6 6 6 6 6 7 8 10 13 16 17 17 19 20 21 22 26 31
14 14 13 15 17 16 11 7 8 10 11 11 7 7 10 9 6 6 6 6 5 3 4 5 8 9 10 10 10 9 9 10 11 11 12 12 12 11 12 13 15 17 17 16 15 14 14 14 14 14 14 14 13 11 10 10 9 9 9 9 8 7 7 7 7 6 6 6 7 7 7 6 6 5 5 6 8 10 13 14 15 15 15 14 15 17 18
12 13 14 14 14 14 12 8 7 9 11 9 7 6 8 9 7 5 4 4 5 4 3 4 6 9 10 10 9 9 9 10 11 12 12 13 13 13 12 11 12 13 15 15 14 14 14 14 14 14 14 14 13 12 11 9 9 9 9 9 8 7 7 7 7 7 8 8 8 8 8 7 6 5 4 5 6 7 9 12 14 13 10 8 8 10 14
13 14 15 13 11 11 10 7 7 8 8 8 8 8 8 8 7 6 4 4 4 6 6 5 5 8 9 9 9 11 12 12 13 13 13 14 14 14 14 14 13 12 12 14 15 15 15 15 15 14 14 13 13 13 12 11 10 10 9 9 8 7 6 7 7 7 7 7 8 8 7 7 7 6 5 5 5 6 7 10 11 7 2 5 5 8 13
13 12 11 10 8 9 7 6 8 9 8 7 8 8 8 9 8 7 6 6 6 8 8 7 5 6 8 9 10 12 13 14 14 14 14 14 14 14 15 16 16 15 14 15 16 16 16 16 15 14 13 14 14 14 13 12 11 10 9 8 7 6 6 6 6 6 6 6 6 6 7 7 7 7 6 5 5 5 6 9 11 7 11 17 16 16 19
10 7 6 8 9 10 9 8 9 10 9 7 6 6 7 8 7 7 8 9 8 7 8 7 7 7 8 10 12 13 13 13 13 12 12 13 14 15 16 16 17 16 16 16 17 18 18 16 14 13 13 14 14 15 13 11 10 10 9 8 7 6 5 6 6 6 6 6 6 6 6 6 7 7 7 5 4 4 5 7 10 10 13 17 17 20 25
7 5 4 8 10 11 12 11 9 8 7 6 5 5 6 6 8 9 10 10 9 9 10 10 10 10 11 13 14 13 12 9 8 8 9 11 12 13 14 15 15 16 17 18 19 19 18 16 14 13 13 14 15 15 13 11 9 9 9 8 7 6 6 6 7 6 6 6 6 6 6 6 6 6 5 4 3 4 6 8 9 9 10 11 12 16 20
6 5 6 8 9 8 9 10 10 9 8 7 7 6 5 5 9 12 11 10 12 12 11 12 14 15 16 15 14 12 11 9 8 8 10 11 11 10 11 13 15 18 20 21 21 19 18 17 16 14 14 15 16 15 14 11 9 9 9 9 8 8 7 7 7 7 6 6 6 6 6 7 6 5 5 4 3 3 6 7 8 9 9 9 10 13 15
7 7 8 8 8 7 7 7 8 8 9 8 8 7 6 7 10 13 13 13 13 13 13 14 15 15 14 13 12 12 12 12 11 11 11 11 10 11 13 14 16 18 19 20 20 18 17 18 18 17 16 16 16 16 15 13 10 10 11 12 11 10 9 8 8 8 8 7 7 7 6 6 6 6 6 5 4 4 5 6 7 8 8 8 9 10 11
4 6 8 8 8 8 7 7 6 5 6 7 8 8 6 7 9 11 12 13 14 15 16 17 16 14 13 14 15 15 15 14 13 13 13 13 13 14 16 17 17 17 16 16 17 17 17 18 19 18 18 17 17 18 19 17 14 12 14 15 14 12 12 11 10 10 10 9 9 8 7 6 6 6 6 5 5 5 5 5 6 7 7 7 9 8 7
8 8 8 8 8 8 6 5 6 6 6 8 10 10 10 11 12 13 13 14 15 17 19 19 18 17 17 17 17 16 16 15 14 14 16 17 18 19 19 19 19 17 15 15 16 17 18 20 21 20 20 19 18 19 21 21 18 17 17 18 16 15 14 13 12 12 12 12 11 9 9 8 7 5 4 4 4 5 4 4 6 7 6 6 7 8 8
9 9 9 8 8 8 9 8 8 10 11 11 10 11 14 16 17 16 16 15 15 17 19 20 19 18 17 16 15 16 17 17 15 16 17 18 19 21 22 22 22 21 18 17 19 20 20 21 21 21 21 21 20 20 21 21 19 18 18 19 19 18 17 17 16 15 14 14 13 12 11 10 9 7 6 5 4 5 4 4 4 5 6 7 8 9 9
11 10 9 9 10 10 11 11 11 13 16 15 12 11 15 19 19 18 17 16 15 15 17 18 18 16 16 15 15 17 18 19 18 18 17 17 19 19 19 20 23 23 20 20 21 23 24 25 23 21 21 22 22 22 24 23 21 19 17 17 17 18 18 19 19 18 17 16 16 14 13 12 10 9 8 7 6 5 4 3 2 2 4 6 7 9 10
17 15 14 15 14 13 14 15 14 17 22 23 20 19 22 24 23 18 15 15 16 17 19 20 20 18 17 18 20 20 21 22 22 20 18 18 18 15 13 15 20 22 23 24 24 25 26 27 26 23 22 22 23 26 28 26 23 20 19 17 16 17 17 17 18 19 19 19 18 17 16 15 13 11 10 9 7 6 5 3 2 3 4 3 6 8 7
20 19 20 18 14 11 13 17 17 19 23 25 25 27 30 32 28 22 18 17 19 20 22 22 22 21 20 21 22 22 21 21 22 22 22 21 19 15 12 13 18 21 24 26 26 25 25 26 26 25 24 24 26 32 35 30 23 21 20 19 18 17 17 17 17 17 17 18 18 18 18 17 16 15 13 12 10 9 8 7 5 5 4 2 4 7 6
19 19 18 15 12 13 18 20 20 20 21 24 28 32 33 32 28 24 22 22 22 22 23 23 23 21 20 20 20 18 17 17 18 20 21 23 23 21 16 14 17 22 25 26 25 25 25 23 24 27 31 31 33 37 36 30 25 24 23 21 21 20 19 19 18 18 18 18 18 18 18 18 17 17 16 15 15 16 16 14 11 9 8 6 4 4 6
19 18 15 13 15 19 22 21 19 18 18 22 29 33 32 29 26 24 23 24 24 23 23 23 22 20 20 20 18 15 14 14 15 16 16 17 19 21 20 17 19 24 27 26 24 25 25 23 24 29 34 36 38 38 34 28 25 25 25 24 24 24 22 21 21 20 19 19 18 18 19 20 19 19 18 18 18 20 21 21 18 15 13 12 9 4 3
19 20 19 18 19 20 20 18 17 17 20 26 30 31 28 25 24 23 22 22 22 22 22 22 21 19 19 19 19 17 17 17 17 16 14 12 11 14 17 19 21 24 26 26 24 23 24 26 29 33 34 35 37 36 32 27 25 25 25 24 24 24 24 23 23 23 23 22 22 21 20 21 23 24 25 23 22 22 23 24 24 21 19 16 14 9 6
19 21 22 21 20 20 20 21 22 24 27 28 25 22 22 23 24 22 21 21 21 21 22 22 22 20 18 17 17 17 19 20 20 19 17 15 13 14 18 21 23 24 26 26 23 22 23 27 32 34 35 35 34 31 27 26 26 25 24 24 24 23 23 23 23 23 24 25 26 28 30 30 30 30 30 29 28 28 27 27 27 25 22 20 18 16 14
19 19 19 19 19 20 22 24 25 24 22 18 14 13 17 20 21 21 21 21 22 22 22 23 22 21 20 19 16 15 14 16 17 18 18 17 16 18 20 22 23 23 24 24 23 23 24 27 30 33 34 34 30 27 25 25 25 24 24 24 23 22 22 22 21 22 22 22 24 29 35 38 38 37 36 34 33 33 33 32 31 28 26 24 22 21 19
19 18 17 18 20 22 23 22 21 18 15 13 12 13 15 17 19 20 21 21 22 23 22 22 21 21 20 20 19 17 15 13 13 14 15 16 16 17 19 21 22 23 22 21 21 23 25 26 28 30 31 29 26 24 24 24 24 23 23 23 23 22 23 22 21 21 21 22 22 23 26 30 34 37 39 39 38 37 37 36 34 32 30 29 27 24 22
18 18 18 19 20 20 19 18 15 12 12 13 14 13 12 14 17 18 18 19 20 20 19 19 19 18 18 18 18 18 18 17 15 14 14 16 17 17 18 20 23 24 22 18 17 19 22 24 26 27 27 25 22 21 21 22 21 21 21 21 21 22 22 23 23 22 22 22 23 23 22 23 25 28 32 36 39 40 40 39 37 35 33 32 30 28 26
18 17 17 17 17 17 17 15 13 12 13 14 13 12 12 14 15 15 15 15 15 16 16 17 17 16 16 17 17 18 19 19 18 16 16 18 19 19 19 20 22 23 22 19 17 17 18 21 23 24 23 21 21 21 20 20 20 20 20 19 19 19 19 21 23 23 22 22 22 22 22 21 22 22 24 26 30 32 34 36 36 36 36 35 34 32 30
16 15 14 15 16 17 18 16 15 14 14 14 13 13 14 14 14 14 14 14 13 13 14 15 16 16 16 16 17 18 18 18 18 18 18 17 18 18 19 20 20 21 21 20 18 17 17 18 20 21 21 19 19 20 20 20 19 19 19 19 19 20 19 19 20 21 21 21 22 22 22 21 21 21 21 21 22 23 24 26 28 30 32 33 34 33 32
17 16 15 14 15 17 18 18 18 17 16 15 14 14 14 14 14 14 15 16 15 14 13 13 15 16 16 16 16 17 18 18 18 18 18 17 16 16 17 17 18 18 18 17 17 17 18 18 19 20 21 19 18 18 19 19 19 19 19 18 18 19 20 21 20 20 20 20 21 22 22 22 22 22 21 21 21 20 20 21 21 22 24 25 27 28 29
Wind_Direction
347 322 311 314 293 276 269 270 279 283 278 270 256 253 255 221 225 252 242 218 233 233 222 236 242 238 243 247 253 268 288 286 260 224 221 232 239 236 225 218 212 209 212 209 205 205 202 200 199 198 200 202 199 199 199 196 197 199 193 189 191 192 193 198 200 198 196 197 199 201 200 201 204 205 205 205 206 208 211 212 213 215 218 221 223 222 221
320 311 309 315 285 283 285 273 267 268 267 263 255 254 260 257 261 279 282 262 250 237 230 240 239 235 243 257 276 285 279 275 262 234 232 235 238 237 230 225 216 212 215 211 206 205 202 201 200 200 201 202 201 202 201 197 198 198 194 193 196 198 200 201 199 196 197 199 201 203 204 205 207 208 206 206 207 210 213 215 214 215 218 218 218 218 217
303 310 312 306 302 298 290 278 263 256 256 254 248 243 250 257 263 270 273 274 268 247 248 260 257 258 277 269 265 263 261 260 250 242 243 242 243 243 238 236 233 226 221 215 207 206 206 204 202 202 202 201 202 205 203 201 200 198 196 196 198 202 203 200 198 201 203 205 205 206 207 208 209 209 208 208 210 213 215 214 213 216 219 218 215 215 214
285 311 325 316 318 309 285 267 255 249 245 247 248 238 229 233 244 254 257 264 266 238 221 250 260 265 261 251 251 252 249 242 234 238 246 247 247 250 245 236 236 233 230 221 211 211 213 208 204 204 203 200 201 204 204 203 200 197 196 196 199 203 203 198 200 203 203 203 204 205 206 206 207 208 208 208 210 212 213 213 212 214 217 216 216 215 214
284 307 321 325 322 302 272 254 245 246 249 258 261 253 242 234 236 247 252 258 268 243 219 230 244 249 246 240 239 245 243 230 224 231 240 243 250 258 256 244 235 233 235 229 219 217 214 208 206 205 202 199 200 204 205 201 197 196 196 197 200 202 200 197 201 202 200 201 203 204 204 204 204 205 206 208 210 210 211 211 211 213 214 214 215 216 216
282 304 321 318 294 265 245 149 123 263 266 267 272 278 275 258 243 250 259 261 264 251 229 226 232 241 246 243 234 243 248 233 228 233 237 242 251 258 258 255 248 239 237 237 233 226 221 217 214 207 202 202 202 202 199 194 194 199 200 201 203 202 198 198 200 200 200 202 203 203 203 201 201 203 205 209 211 211 211 211 211 213 214 213 215 217 217
268 302 309 274 251 249 300 83 100 271 252 240 283 287 277 275 277 270 262 257 256 252 238 228 230 240 251 257 220 236 250 243 237 242 241 236 243 251 255 259 260 252 246 247 244 238 231 224 215 205 203 205 202 199 195 191 195 201 203 205 206 203 200 200 200 200 201 202 202 202 201 199 200 203 205 209 209 208 210 212 214 216 216 214 215 217 217
243 244 235 236 257 327 312 296 105 45 182 171 292 280 256 3 356 320 285 277 274 270 262 249 245 254 268 288 196 207 230 237 236 246 250 239 243 257 266 273 275 273 268 265 259 252 242 225 211 206 206 203 199 199 198 193 194 198 200 201 202 200 199 200 200 201 201 201 201 201 199 199 201 204 206 208 208 207 209 212 214 217 218 217 216 217 218
218 218 236 250 300 308 289 267 108 89 126 89 330 283 254 19 10 346 318 308 301 298 295 288 281 277 278 270 232 200 207 229 237 249 265 270 269 276 283 286 285 282 278 273 267 260 246 225 212 207 204 198 195 196 196 193 193 193 195 197 198 198 199 200 200 201 200 199 200 199 199 201 203 205 207 208 208 208 210 211 212 216 220 221 220 220 220
215 227 244 253 262 266 254 171 124 143 209 175 177 231 232 55 24 358 333 315 311 312 312 310 308 265 246 257 243 194 187 208 234 254 271 284 287 292 300 300 298 295 284 275 269 258 242 227 213 202 195 190 188 189 190 191 190 189 193 198 198 199 201 200 198 197 197 198 198 198 200 203 205 205 207 208 208 208 210 212 213 216 219 222 224 223 222
223 223 233 236 246 255 152 137 153 223 209 173 184 240 248 50 11 349 333 322 318 314 313 315 308 234 229 245 249 180 162 168 193 248 283 302 307 312 324 325 320 314 296 277 273 254 238 230 211 196 190 185 185 188 189 188 187 190 197 201 201 202 202 200 197 198 199 199 199 199 203 206 207 207 207 208 208 209 212 214 216 218 219 221 224 224 224
227 229 243 241 247 285 91 136 169 273 167 163 201 259 262 46 356 338 328 322 318 315 314 308 276 238 236 249 314 35 86 108 86 344 318 321 325 338 355 352 337 338 2 54 62 45 297 274 220 195 188 185 187 189 184 186 194 199 202 203 202 202 201 199 201 202 202 200 200 202 205 207 208 208 208 208 208 210 213 215 217 219 220 222 224 224 224
228 229 243 249 255 281 270 182 167 149 164 190 243 260 220 7 333 332 323 312 313 318 313 294 264 258 297 311 330 15 46 41 18 358 332 329 332 341 359 3 1 39 59 65 66 52 25 8 309 187 184 183 185 184 181 190 201 204 204 205 205 205 203 203 205 205 204 205 206 206 207 206 207 210 210 210 210 212 215 218 220 221 222 223 225 226 225
228 226 240 259 272 282 216 182 153 168 208 235 262 268 303 308 321 339 325 309 313 320 307 288 276 286 326 318 312 22 49 42 19 351 337 340 338 338 5 26 58 83 74 68 66 52 37 38 58 144 175 175 175 178 180 193 207 206 204 205 207 206 204 204 205 205 206 208 209 209 208 206 206 209 210 209 211 212 214 217 220 221 222 224 226 229 228
224 224 230 241 251 348 16 271 201 200 225 261 331 347 315 312 329 335 320 309 316 317 307 298 288 285 299 304 325 38 43 43 31 357 342 340 337 343 8 43 74 86 81 72 66 55 45 45 51 83 135 138 132 145 136 77 274 215 208 207 207 206 203 203 203 204 206 209 210 209 208 207 207 209 209 208 209 211 212 214 218 221 222 223 226 228 228
224 218 217 230 276 332 335 316 286 258 277 26 25 303 303 3 354 338 323 314 315 312 307 306 298 288 296 339 24 49 53 51 41 21 9 355 345 349 360 26 60 77 81 76 70 62 56 52 52 63 85 94 90 86 65 41 42 188 205 207 207 206 207 208 208 206 207 209 210 210 209 208 208 209 209 208 209 210 211 214 217 222 223 223 225 226 226
259 251 268 300 302 300 305 305 303 308 312 228 201 240 282 26 14 353 327 311 314 317 312 309 310 312 342 52 45 44 58 59 52 51 45 27 15 14 19 30 50 66 76 78 75 69 62 59 58 60 69 79 79 71 56 48 65 119 185 199 202 205 207 210 212 212 210 209 210 211 210 207 207 209 209 208 210 212 213 215 218 224 227 226 227 227 226
302 288 268 268 274 284 297 299 296 295 288 256 232 227 184 62 34 3 329 313 318 322 315 312 326 320 338 67 68 59 59 60 60 62 60 53 45 37 37 40 46 61 73 77 76 73 68 65 66 64 66 72 74 69 62 62 69 90 138 166 178 191 201 207 213 215 214 213 213 212 211 209 209 210 209 208 210 211 212 215 219 223 226 227 227 228 227
300 292 264 259 272 293 312 307 294 287 277 264 254 242 139 79 56 20 346 329 330 332 328 331 344 338 1 53 73 69 59 54 54 52 53 57 56 50 51 51 50 62 72 73 74 74 70 67 69 69 68 70 72 72 71 71 77 83 92 107 120 124 136 169 204 216 219 221 221 218 217 216 216 216 214 213 214 213 213 217 221 224 225 226 225 225 226
267 273 281 286 288 293 298 294 288 284 273 259 256 249 151 91 69 37 8 353 357 7 356 344 352 18 26 30 42 54 53 47 42 38 38 45 53 57 60 59 61 66 69 70 75 77 74 72 74 73 72 72 72 72 73 76 84 85 81 84 92 90 91 101 111 153 206 224 230 229 226 225 224 224 221 220 221 219 217 218 220 223 224 224 223 224 225
278 274 277 284 283 280 277 271 267 268 260 244 244 252 163 90 72 40 15 15 21 26 19 7 10 20 18 13 16 29 42 40 32 30 31 34 47 59 61 61 64 66 66 70 76 79 78 80 81 79 77 75 71 69 70 74 84 91 93 95 96 95 95 97 98 104 142 204 221 225 228 230 231 231 229 227 227 227 225 222 222 223 224 224 222 222 222
270 261 268 287 285 279 281 280 278 275 264 241 225 284 309 89 86 57 3 12 28 36 38 27 22 23 16 5 2 13 35 37 26 25 31 37 49 59 60 63 66 66 65 70 75 79 81 83 83 82 79 76 73 68 64 64 70 80 88 91 90 89 88 85 88 97 112 167 212 224 230 233 236 238 238 236 236 237 237 234 231 231 233 233 231 228 225
265 269 282 295 291 287 291 292 291 289 278 258 166 9 309 90 101 94 31 23 25 25 38 40 33 30 20 4 358 7 26 34 26 22 27 33 45 57 62 65 65 64 64 66 71 76 81 83 84 82 77 73 72 68 64 65 68 72 78 81 79 75 71 67 66 68 75 119 216 237 238 239 241 244 245 245 244 246 247 246 243 241 241 242 242 240 236
270 278 282 280 275 275 278 281 286 292 288 273 191 139 267 254 110 107 97 67 44 21 24 36 37 33 22 7 3 8 18 30 30 20 16 16 23 42 57 62 62 62 61 60 61 65 71 75 76 75 71 68 66 66 65 69 74 76 80 85 84 78 68 60 55 50 46 42 266 247 246 250 249 249 251 254 253 252 252 252 251 250 249 248 248 245 242
262 270 274 271 267 267 271 277 281 282 281 274 233 162 217 240 111 97 80 67 65 44 28 27 31 36 31 16 9 11 16 26 29 25 20 17 18 30 45 51 55 55 51 47 44 45 51 57 60 62 61 58 56 58 59 60 64 69 73 78 80 76 68 60 51 33 12 359 324 285 272 271 265 259 256 255 256 258 258 258 258 257 254 252 250 247 245
254 262 268 268 266 265 267 271 271 267 264 259 229 167 173 193 106 94 80 57 60 60 52 41 35 39 40 29 17 17 22 28 32 36 37 31 26 29 36 43 50 52 48 44 40 37 39 43 46 49 49 44 41 42 42 41 44 50 57 66 70 65 58 52 41 20 2 346 329 311 293 280 274 270 266 264 265 266 265 265 263 261 259 255 250 247 243
254 257 260 263 264 264 256 247 252 256 252 240 216 168 149 146 111 102 98 70 45 40 51 52 43 39 42 40 31 27 30 34 38 43 43 37 31 31 34 41 49 53 53 49 43 38 38 40 41 41 37 30 25 26 27 29 32 35 41 51 56 51 46 43 37 23 5 344 329 317 303 293 287 282 280 281 280 276 273 271 269 267 265 261 254 247 242
257 253 248 248 255 263 260 244 241 240 232 227 213 160 133 134 127 116 111 91 59 24 26 47 50 46 43 41 39 38 37 38 42 45 42 36 32 32 37 44 50 53 54 50 42 39 40 41 41 39 31 22 19 20 23 30 34 33 34 42 46 45 40 37 34 24 6 348 331 315 306 303 299 293 292 291 286 282 281 278 276 278 277 269 256 244 237
252 250 246 244 247 252 255 250 239 228 219 218 208 149 134 144 146 129 117 107 93 61 21 33 51 56 52 45 42 41 39 40 43 46 44 39 35 34 39 48 55 58 57 52 45 42 42 41 40 36 28 20 18 21 25 34 37 35 35 38 39 40 37 33 29 21 9 357 342 327 322 321 318 316 315 307 297 294 291 285 282 285 282 263 236 218 214
249 248 252 254 246 232 224 226 226 216 205 196 182 151 142 149 153 139 115 104 105 97 67 42 57 65 62 54 46 44 45 46 48 50 50 49 46 44 45 53 59 59 54 48 43 42 42 42 39 33 24 19 18 20 24 31 35 35 35 34 31 31 32 32 29 21 12 3 350 339 336 337 338 340 338 329 322 317 310 303 296 287 269 243 215 171 153
254 248 248 249 228 203 204 214 209 202 198 185 168 155 145 147 151 142 118 107 118 117 102 82 75 76 74 71 65 58 55 53 54 55 57 56 54 53 52 54 59 58 51 44 41 39 39 40 37 31 25 21 20 19 21 25 29 31 31 29 24 21 24 33 34 23 11 2 353 348 348 348 351 353 355 360 5 356 347 344 336 318 177 118 83 100 123
255 245 235 229 203 180 183 195 189 185 189 184 168 158 155 156 155 148 139 133 128 123 114 101 89 86 86 86 81 72 63 58 56 56 57 58 58 56 53 53 55 56 52 47 43 40 39 37 33 28 26 25 23 21 21 22 26 27 26 25 24 21 24 36 39 29 17 7 356 355 359 357 359 3 4 13 27 16 7 15 16 38 110 115 113 118 125
254 242 206 194 182 167 165 181 187 181 179 181 177 167 163 160 153 145 140 132 123 120 119 114 106 100 96 90 83 76 70 64 58 53 50 49 50 52 53 53 53 53 50 49 47 44 41 37 32 29 30 30 27 25 23 24 26 28 28 33 37 35 32 39 41 34 24 10 360 8 18 13 9 11 7 9 30 31 33 48 48 56 89 106 115 124 128
244 249 203 185 181 173 171 176 178 171 171 180 178 167 161 153 145 142 137 130 125 124 123 122 120 115 105 95 88 82 77 69 58 46 37 35 38 47 55 60 61 59 55 51 47 44 39 35 34 35 36 37 34 32 30 29 29 31 34 42 49 47 37 33 33 31 27 16 6 10 24 24 19 22 18 13 27 47 54 66 70 65 69 84 102 116 124
213 228 211 192 185 179 174 172 166 163 170 173 162 156 159 149 140 137 133 129 128 127 124 122 118 110 100 94 90 86 80 71 63 52 45 42 41 43 51 59 62 61 57 51 47 43 38 36 37 41 44 43 39 35 33 33 32 35 39 45 52 55 49 39 31 25 24 23 14 12 24 28 24 28 36 30 31 60 68 72 82 83 77 81 98 109 115
186 195 193 182 168 160 162 167 164 162 166 165 152 147 151 145 138 135 133 130 127 122 116 111 105 98 92 88 86 84 78 73 69 62 53 48 43 41 46 50 52 56 56 50 42 37 34 33 35 41 47 47 41 34 34 35 34 36 42 47 50 52 50 45 38 29 24 23 22 20 29 37 31 30 40 37 30 54 77 86 94 95 95 101 106 104 104
124 146 150 144 136 133 144 165 176 167 154 145 136 127 121 120 120 119 120 120 117 114 111 106 99 94 91 88 84 82 76 71 67 60 52 48 47 48 49 47 45 49 53 46 35 30 31 34 37 41 45 45 39 33 36 40 39 37 42 46 47 48 48 43 36 30 24 22 21 19 22 29 31 32 39 40 34 42 67 97 105 100 103 118 125 120 114
69 89 104 111 109 102 104 137 158 144 117 111 112 108 104 105 105 102 99 99 103 106 106 102 97 95 92 87 81 77 71 66 61 57 54 54 55 56 53 48 44 45 47 42 36 34 33 36 41 42 39 37 36 36 41 45 44 43 47 51 50 50 51 48 40 33 26 21 19 17 18 20 22 20 21 35 49 48 49 77 101 108 120 133 133 128 126
65 73 76 85 89 80 76 87 99 97 91 90 97 106 107 105 102 99 94 92 98 104 103 97 93 91 89 85 80 74 68 63 56 51 49 50 53 56 54 46 41 41 43 44 43 39 34 34 38 38 34 34 39 43 47 48 45 43 48 53 53 52 52 51 48 43 35 28 24 24 23 23 20 9 355 359 32 54 53 53 74 104 125 132 131 135 142
52 57 61 74 76 68 66 66 64 67 72 70 67 81 93 93 90 88 85 86 89 90 87 86 88 86 84 84 82 74 67 61 54 48 45 45 49 53 51 41 32 31 36 42 44 41 38 37 38 37 35 35 40 47 51 52 48 43 43 46 49 50 50 51 52 50 45 39 34 29 27 30 29 18 3 357 5 25 41 44 50 79 100 119 137 150 159
46 43 48 57 56 53 61 67 62 61 65 64 59 62 72 75 74 70 69 76 80 75 71 76 83 84 82 82 80 74 69 64 58 52 49 49 50 53 51 38 27 27 36 43 43 40 40 40 38 38 37 37 41 50 56 54 49 44 41 39 40 42 44 46 48 47 45 43 41 36 33 36 36 29 22 16 14 23 32 28 28 56 75 113 152 158 160
41 40 45 49 46 46 61 67 65 63 62 59 57 58 62 65 66 63 58 61 66 66 65 69 74 76 77 78 76 73 71 69 64 59 56 54 52 52 52 40 28 30 41 46 43 39 40 40 38 40 44 44 49 56 59 55 47 42 41 38 36 37 38 38 40 40 39 40 40 38 36 37 36 36 37 36 35 46 58 58 54 61 72 103 149 153 157
38 42 46 46 44 50 56 58 59 60 58 53 53 56 58 60 62 63 61 58 59 62 64 63 61 62 65 69 69 66 65 65 65 64 62 57 52 49 47 41 34 37 45 49 46 42 41 37 37 46 54 56 57 59 59 53 46 43 42 38 36 37 36 35 35 36 38 38 36 34 33 32 31 34 42 48 52 59 65 65 61 64 69 68 79 142 173
40 44 48 49 51 56 59 57 57 61 63 59 57 58 59 58 59 61 62 61 59 60 63 62 58 55 58 62 62 60 56 57 61 65 66 61 52 43 40 40 42 45 48 50 49 46 43 40 44 54 60 61 62 61 57 50 46 45 43 40 39 39 38 37 36 36 37 38 37 35 35 36 35 34 35 38 43 50 56 58 57 57 61 61 55 55 164
40 42 46 50 53 57 61 61 61 65 69 66 62 59 59 61 61 60 60 60 58 55 57 58 57 57 60 64 66 64 61 59 59 60 63 65 55 40 37 42 47 48 50 51 50 47 45 48 55 61 62 62 61 60 56 50 48 47 44 43 42 41 41 41 42 41 42 41 40 39 39 41 43 42 39 36 34 36 44 52 55 53 51 51 50 49 63
38 40 42 46 50 55 60 63 64 64 66 66 62 55 54 59 60 55 52 54 56 56 56 57 56 55 59 64 67 69 68 65 60 57 60 65 62 50 46 49 51 51 52 53 50 45 45 52 59 62 62 61 60 57 53 50 49 48 46 45 44 43 42 43 44 46 48 48 47 49 52 52 50 48 45 43 42 41 43 48 53 53 49 46 46 47 48
37 36 35 38 45 53 58 60 59 58 58 61 62 55 52 57 59 54 50 52 56 58 58 58 57 55 55 56 58 61 66 67 62 54 52 56 58 53 50 52 55 57 57 56 52 50 53 57 60 61 61 60 58 54 53 52 51 49 48 47 45 44 44 45 45 46 47 48 48 51 55 56 55 53 51 49 47 47 47 49 50 50 49 47 46 47 45
35 31 27 30 39 47 51 53 54 53 52 55 59 56 53 56 58 56 53 55 57 58 58 58 56 53 53 54 54 52 55 63 65 53 43 46 53 53 49 52 60 65 63 56 52 53 59 62 62 61 59 57 54 52 52 52 52 50 49 48 47 46 45 45 46 46 46 45 45 46 48 51 53 54 55 54 53 51 51 51 50 50 50 49 49 49 48
33 32 30 31 35 38 41 45 47 46 46 49 51 49 49 56 59 56 51 52 56 58 57 55 53 51 52 54 54 51 52 58 64 60 50 50 54 54 50 52 60 64 62 54 47 48 54 59 62 61 56 51 47 47 49 49 49 50 49 48 48 48 47 46 47 48 47 46 46 46 45 45 47 49 52 55 56 56 55 55 54 53 53 52 52 52 52
33 36 37 37 36 36 40 43 44 41 40 43 44 44 47 54 57 52 46 49 57 60 58 55 52 50 49 52 53 52 52 54 57 57 55 54 54 53 51 52 56 59 59 55 48 43 44 48 52 53 50 46 43 44 45 45 46 47 47 46 46 47 46 46 47 48 47 47 47 46 45 44 44 44 45 49 51 53 55 56 56 56 55 54 53 52 52
36 37 41 45 46 46 46 46 45 42 41 42 43 45 51 58 59 53 46 47 54 59 59 56 51 46 45 48 50 50 50 51 52 52 51 51 50 50 50 51 53 55 55 52 47 41 38 38 40 42 43 43 42 42 43 44 45 46 45 46 46 46 45 45 46 47 46 46 46 46 44 43 42 42 42 43 43 45 47 49 51 52 54 54 54 53 52
41 39 40 45 50 51 49 46 44 42 42 43 45 47 51 57 60 55 48 46 48 52 55 57 53 46 42 43 46 47 47 48 49 49 48 47 47 47 46 46 47 48 46 44 42 41 41 40 40 41 41 42 41 41 42 43 45 45 44 45 47 48 48 47 47 46 46 46 46 45 44 42 42 42 41 41 40 41 41 41 42 44 47 48 50 51 52